Temp_Advection
nan nan nan nan nan nan nan nan nan nan nan nan nan nan nan nan nan nan nan nan nan nan nan nan nan nan nan nan nan nan nan nan nan nan nan nan nan nan nan nan nan nan nan nan nan nan nan nan nan nan nan nan nan nan nan nan nan nan nan nan nan nan nan nan nan nan nan nan nan
nan 0 0 0 0 0 -0 -0 -0 0 0 0 0 -0 -0 -1 -1 -1 -1 -1 -1 -1 -1 -1 -1 -1 -1 -1 -1 -1 -1 -1 -0 0 0 -0 -0 0 -0 -0 -0 0 0 -0 -1 -1 -1 -1 -1 -1 -1 -1 -1 -1 -1 -0 -0 -1 -1 -1 -1 -1 -1 -1 -1 -1 -1 -1 nan
nan -0 -0 -0 0 0 0 0 0 0 1 0 0 0 -0 -0 -1 -1 -1 -1 -1 -1 -1 -1 -1 -1 -1 -1 -1 -1 -1 -1 -0 0 0 0 -0 0 0 -0 -0 -0 0 0 -0 -0 -1 -1 -1 -1 -1 -1 -1 -1 -1 -1 -1 -1 -1 -1 -1 -0 -1 -0 -1 -1 -1 -1 nan
nan -0 -1 -1 -0 -0 -0 -0 -0 0 0 -0 -0 -0 -0 -0 -0 -1 -1 -1 -1 -1 -1 -1 -1 -1 -1 -1 -1 -1 -1 -1 -1 -0 0 0 -0 -0 -0 -0 -1 -1 -1 -0 0 -0 -0 -0 -0 -0 -1 -1 -1 -1 -1 -1 -1 -1 -1 -1 -1 -0 -0 -0 -0 -0 -1 -1 nan
nan -0 -0 -0 -0 -0 -0 -0 -0 -0 -0 -0 -0 -0 -0 -0 -0 -0 -1 -1 -1 -0 -0 -0 -1 -1 -1 -1 -1 -1 -1 -1 -1 -1 -0 -0 -0 -0 -0 -0 -1 -1 -1 -1 -0 -0 -0 0 0 0 -0 -1 -1 -1 -1 -1 -1 -1 -1 -1 -1 -0 -0 -0 -0 -0 -1 -1 nan
nan -1 -0 -0 -0 -0 -0 -0 -0 -0 -0 -0 -0 -0 -0 -0 -0 -0 -1 -1 -1 -0 -0 -0 -0 -1 -1 -1 -1 -1 -1 -1 -1 -1 -1 -0 -0 -0 -0 -0 -1 -1 -1 -1 -1 -1 -0 -0 0 0 -0 -0 -1 -1 -1 -1 -1 -1 -1 -1 -1 -1 -0 -0 -0 -0 -0 -1 nan
nan -1 -0 -0 -0 -0 -0 -0 -0 -0 -0 -0 -0 -0 -0 -0 -0 -0 -0 -0 -0 -0 -0 -0 -0 -0 -1 -1 -1 -1 -1 -1 -1 -1 -1 -1 -0 -0 -0 -1 -1 -1 -1 -1 -1 -1 -0 -0 -0 -0 -0 -0 -1 -1 -1 -1 -1 -1 -1 -1 -1 -1 -1 -1 -1 -0 -0 -0 nan
nan -0 -0 -0 -0 -0 -0 -0 -0 -0 -0 -0 -0 -0 -0 -0 -0 -0 -0 -0 -0 -0 -0 -0 -0 -0 -0 -1 -1 -1 -1 -2 -1 -1 -1 -1 -1 -1 -1 -1 -1 -1 -1 -1 -1 -1 -0 -0 0 0 -0 -0 -1 -1 -1 -0 -0 -0 -0 -1 -1 -1 -1 -1 -1 -1 -0 -0 nan
nan 0 0 0 0 -0 -0 -0 -0 -0 -0 -0 -0 0 0 0 0 0 -0 -0 -0 -0 -0 -0 -0 -0 -0 -0 -1 -1 -1 -2 -2 -1 -1 -1 -1 -1 -1 -1 -1 -1 -1 -1 -0 -0 -0 -0 0 0 0 -0 -0 -1 -1 -1 -0 -0 -0 -0 -1 -1 -1 -1 -1 -1 -0 -0 nan
nan 0 0 0 0 0 -0 -0 -0 -0 -0 -0 -0 0 0 1 1 0 0 -0 -0 -1 -0 -0 -1 -1 -1 -1 -1 -1 -1 -1 -2 -2 -1 -1 -1 -1 -1 -1 -1 -1 -1 -0 -0 -0 -0 -0 -0 0 0 0 -0 -1 -1 -1 -0 -0 -0 -0 -0 -1 -1 -1 -1 -0 -0 -0 nan
nan 0 0 0 0 0 -0 -0 -0 -0 -0 -0 -0 0 0 0 0 0 0 -0 -1 -1 -0 -0 -1 -1 -1 -1 -1 -1 -1 -1 -1 -1 -2 -1 -1 -1 -0 -0 -0 -1 -1 -0 -0 -0 -0 -0 -0 -0 0 0 0 -0 -1 -1 -0 -0 -0 -0 -0 -0 -1 -1 -1 -1 -1 -1 nan
nan 0 0 0 0 0 0 -0 -0 -0 -0 0 0 0 -0 -0 0 -0 -0 -0 -0 -1 -0 -0 -0 -0 -0 -0 -0 -1 -1 -1 -1 -1 -1 -1 -1 -1 -0 -0 -0 -0 -0 -0 0 0 0 0 0 -0 0 0 0 -0 -1 -1 -0 -0 -0 -0 -0 -0 -1 -1 -1 -1 -1 -1 nan
nan 0 0 0 0 0 0 0 -0 -0 -0 0 0 0 -0 -0 -0 -0 -0 -0 -0 -1 -1 -0 0 0 -0 -0 -0 -0 -1 -1 -1 -1 -1 -1 -1 -1 -0 -0 -0 -0 -0 -0 0 1 1 0 0 0 0 1 1 0 -0 -0 -0 -0 -0 -0 -0 -0 -0 -1 -1 -1 -1 -1 nan
nan -0 -0 -0 0 0 0 -0 -0 -0 0 0 0 0 -0 -0 -0 -0 -0 -0 -0 -0 -0 -0 0 0 0 -0 -0 -0 -0 -0 -1 -1 -1 -1 -1 -0 -0 -0 -0 -0 -0 -0 0 1 1 0 0 0 0 1 1 0 -0 -0 -0 -0 -0 -0 -0 -0 -0 -0 -1 -0 -1 -1 nan
nan -0 -0 -0 -0 -0 -0 -0 0 0 0 0 0 0 0 -0 -0 -0 -0 -0 -0 -0 -0 -0 -0 0 0 0 -0 -0 -0 -0 -0 -1 -1 -1 -0 -0 -0 -1 -1 -1 -1 -1 -0 0 1 0 -0 0 0 0 0 0 0 -0 -0 -0 -0 0 0 -0 -0 -0 -0 -0 -0 -0 nan
nan -0 -0 -0 -0 -0 -0 -0 0 1 1 0 0 0 0 0 -0 -0 0 0 -0 -0 0 0 0 0 -0 0 0 0 -0 -0 -0 -0 -0 -0 -0 -0 -1 -1 -1 -1 -2 -1 -1 -0 -0 0 0 0 0 -0 -0 0 0 0 -0 -0 -0 0 0 -0 -0 -0 -0 -0 -0 -0 nan
nan -0 -0 -0 -0 -0 -0 0 0 1 1 0 0 0 0 0 -0 -0 0 0 0 -0 -0 0 0 0 0 0 0 0 0 -0 -0 0 0 -0 -0 -1 -1 -1 -1 -2 -2 -2 -2 -1 -1 0 1 1 1 0 -0 -0 0 0 -0 -0 -0 -0 -0 -0 -0 -0 -0 -0 -0 -0 nan
nan -0 -0 -0 -0 -0 0 0 0 0 0 0 0 0 0 0 -0 -0 0 1 1 0 -0 0 0 0 0 0 0 0 0 0 0 0 0 0 -0 -1 -1 -1 -1 -1 -2 -2 -1 -1 -1 -0 0 1 1 1 1 0 0 0 -0 -0 0 -0 -0 -0 -0 -0 -0 -0 -0 -0 nan
nan -0 -0 -0 -0 -0 0 -0 -0 -0 -0 -0 -0 -0 -0 -0 0 0 0 0 1 0 -0 -0 0 0 0 0 0 0 0 0 0 0 0 0 -0 -0 -1 -1 -1 -1 -1 -1 -1 -1 -1 -0 -0 -0 1 2 2 1 0 0 0 -0 0 -0 -0 -0 -0 -0 -0 -0 -0 -0 nan
nan -0 -0 0 -0 -0 -0 -0 -0 -0 -0 -0 -0 -0 -0 -0 0 0 0 0 0 0 -0 -0 0 0 0 0 0 -0 -0 -0 -0 -0 -0 -0 -0 -0 -0 -1 -1 -0 -0 -1 -1 -1 -1 -1 -1 -0 1 1 1 1 0 0 0 -0 0 0 -0 -0 -0 -0 -0 -0 -0 0 nan
nan 0 -0 0 -0 -0 -0 -0 -0 -1 -0 -0 -0 -0 -0 0 0 0 0 0 0 0 -0 -0 -0 0 0 0 -0 -0 -0 -0 -0 -0 -0 -0 -0 -0 -0 -0 -1 -0 -0 -0 -1 -1 -0 -1 -0 0 0 0 0 0 0 0 -0 -0 -0 -0 -0 -0 -0 -0 -0 -0 -0 -0 nan
nan 0 0 -0 -0 -0 -0 -0 -0 -0 -0 -0 -0 -0 0 0 0 0 0 0 -0 -0 -0 -0 -0 -0 -0 -0 -0 -0 -0 -0 -0 -0 -0 0 0 0 -0 -0 -1 -1 -1 -1 -1 -1 -1 -1 0 0 -1 -1 -0 -0 -0 0 -0 -0 -0 -0 -0 -0 -0 -0 -0 -0 -0 -0 nan
nan 0 0 0 0 0 0 -0 -0 -0 -0 -0 -0 -0 -0 -0 -0 -0 -0 -0 -0 -0 -0 -0 -1 -1 -1 -1 -0 -0 -0 -0 -0 -0 -0 0 0 0 -0 -0 -1 -1 -1 -1 -1 -1 -2 -1 -0 -0 -1 -1 -1 -0 -0 -0 -0 -0 -0 -0 -1 -1 -0 -0 -0 -0 -0 -0 nan
nan 0 0 0 0 0 0 0 -0 -0 -0 -0 -0 -0 -1 -1 -1 -1 -1 -1 -1 -0 -0 -0 -1 -1 -1 -1 -0 0 0 0 -0 -1 -1 -0 0 0 -0 -0 -0 -1 -1 -1 -1 -1 -2 -0 -0 -0 -0 -1 -1 -0 -0 -0 -0 -0 -0 -0 -0 -1 -1 -0 -0 -0 -0 -0 nan
nan -0 0 0 0 0 0 0 -0 -0 -0 -0 -0 -1 -1 -1 -1 -1 -1 -1 -1 -1 -1 -1 -1 -1 -1 -1 -0 0 0 0 -0 -0 -1 -1 -0 0 0 -0 -0 -0 -1 -1 -2 -1 -1 -1 -1 -1 -0 0 -0 -0 -0 -0 -0 -0 -0 -0 -0 -1 -1 -0 -0 -0 -0 -0 nan
nan -0 0 0 -0 -0 -0 -0 -0 -0 -0 -0 -0 -0 -1 -1 -1 -1 -1 -1 -2 -2 -2 -1 -1 -1 -1 -0 -0 -0 -0 -0 -0 -0 -1 -1 -0 0 0 -0 -0 -0 -1 -1 -2 -1 -1 -1 -1 -1 -1 0 -0 -0 -0 -0 -0 -0 -0 -0 -0 -0 -1 -1 -0 -0 -0 0 nan
nan -0 -0 0 -0 -0 -0 -0 -0 -0 -0 -1 -1 -0 -0 -0 -1 -1 -1 -1 -1 -2 -2 -2 -1 -1 -0 -0 -0 -0 -0 -0 -0 -1 -1 -1 -0 0 0 0 0 -0 -1 -1 -1 -1 -1 -2 -1 -1 -1 -1 -0 -0 -0 -0 -0 -0 -0 -0 -0 -0 -0 -0 -0 -0 0 0 nan
nan -0 -0 -0 -0 -0 -1 -1 -1 -1 -1 -1 -1 -1 -0 -0 -0 -0 -0 -0 -0 -0 -1 -1 -1 -1 -1 -1 -1 -1 -1 -1 -0 -1 -1 -1 -1 0 0 0 0 0 -0 -1 -1 -1 -2 -2 -1 -1 -1 -1 -0 0 0 -0 -0 -0 -0 -0 -0 -0 -0 -0 0 0 0 0 nan
nan -1 -1 -1 -1 -1 -1 -1 -1 -1 -1 -1 -1 -1 -1 -1 -0 -1 -1 -1 -0 -0 -0 -0 -0 -1 -1 -1 -1 -1 -1 -0 -0 -0 -1 -1 -1 -1 -0 0 0 0 -0 -0 -1 -1 -1 -2 -1 -1 -1 -1 -0 -0 0 0 -0 -0 -0 -0 -0 -0 -0 -0 0 0 0 -0 nan
nan -1 -2 -2 -2 -2 -2 -1 -1 -1 -1 -1 -1 -1 -1 -1 -1 -1 -1 -1 -1 -1 -0 -0 -0 -1 -1 -1 -1 -1 -1 -0 -0 -0 -1 -1 -1 -1 -1 -0 -0 0 0 -0 -1 -1 -1 -1 -1 -1 -1 -1 -1 -0 -0 0 0 -0 -0 -0 -0 -0 0 0 0 0 0 -0 nan
nan -2 -2 -2 -2 -2 -1 -1 -1 -1 -1 -1 -1 -1 -1 -1 -1 -1 -1 -1 -1 -1 -1 -1 -1 -1 -1 -1 -1 -1 -0 -0 -0 -0 -0 -1 -1 -1 -1 -1 -0 -0 -0 -0 -1 -1 -1 -1 -1 -1 -1 -1 -0 -0 -0 -0 -0 -0 -0 -0 0 0 0 0 0 0 -0 -0 nan
nan -1 -1 -1 -1 -1 -1 -1 -1 -1 -1 -1 -1 -1 -0 -1 -1 -1 -1 -1 -1 -1 -1 -1 -1 -1 -1 -1 -1 -1 -1 -0 -0 -0 -0 -1 -1 -1 -1 -2 -1 -1 -0 -0 -1 -1 -1 -1 -1 -1 -1 -1 -0 -0 -0 -0 -0 -0 -0 0 0 0 0 0 0 -0 -0 -0 nan
nan -1 -1 -1 -1 -1 -1 -0 -0 -0 -0 -0 -0 -0 -0 -0 -1 -1 -1 -1 -1 -1 -1 -1 -1 -1 -1 -1 -1 -1 -1 -1 -0 -0 -0 -1 -0 -0 -1 -1 -1 -1 -0 -0 -1 -1 -1 -1 -1 -1 -1 -1 -0 -0 -0 -0 -0 -0 -0 0 0 0 -0 0 0 -0 -0 -0 nan
nan -0 -0 -0 -0 -0 -0 -0 -0 0 0 0 0 -0 -0 -0 -0 -0 -0 -0 -1 -1 -1 -1 -1 -1 -1 -1 -1 -1 -1 -1 -1 -0 -0 -0 -0 -0 -0 -1 -1 -1 -1 -0 -0 -1 -1 -1 -1 -1 -1 -0 -0 -0 -0 -0 -0 -0 0 0 0 -0 0 0 0 -0 -0 -0 nan
nan -0 -0 -0 -0 -0 -0 0 0 0 0 0 0 0 0 0 0 0 0 -0 -0 -0 -1 -1 -1 -1 -1 -1 -1 -1 -1 -1 -1 -1 -1 -0 -0 -0 -0 -0 -1 -1 -1 -0 -0 -1 -1 -1 -1 -1 -1 -1 -1 -1 -1 -1 -0 -0 -0 0 0 -0 0 0 0 0 -0 -0 nan
nan -0 -0 -0 -0 -0 -0 -0 0 0 0 0 0 0 0 0 0 0 0 0 0 -0 -0 -0 -0 -1 -1 -1 -1 -1 -0 -0 -1 -1 -1 -0 -0 -0 -0 -0 -0 -1 -1 -1 -1 -1 -1 -1 -1 -1 -1 -1 -0 -0 -1 -1 -1 -0 -0 -0 -0 -0 0 0 0 0 -0 -1 nan
nan -0 -0 -0 -0 -0 -0 -0 -0 0 -0 -0 0 0 0 0 0 0 0 0 0 0 0 -0 -0 -0 -1 -1 -1 -1 -0 -0 -0 -1 -1 -0 -0 -0 -0 -0 -0 -1 -1 -1 -1 -1 -0 -0 -1 -0 -0 -0 -0 -0 -1 -1 -1 -0 -0 -0 -0 0 0 0 0 -0 -1 -1 nan
nan -0 -0 -0 -0 -0 -0 -0 -0 -0 -0 -0 0 0 -0 0 0 0 0 0 0 0 0 0 0 -0 -0 -0 -0 -0 -0 -0 -0 -1 -1 -1 -0 -0 -0 -0 -0 -0 -0 -0 -0 -0 -0 -0 -0 -0 -0 -0 -0 0 -0 -1 -0 -0 -0 -0 -0 -0 0 -0 -0 -0 -1 -1 nan
nan -0 -0 -0 -0 -0 -0 -0 -0 0 0 0 0 0 0 0 0 0 0 0 0 0 0 0 0 0 0 -0 -0 -0 -0 -0 -0 -0 -1 -1 -0 -0 -0 -0 -0 -0 -0 -0 -0 -0 -0 -0 -0 -0 -0 -0 -0 0 -0 -1 -0 -0 -0 -0 -0 -0 -0 -0 -0 -0 -1 -1 nan
nan 0 -0 -0 -0 -0 -0 -0 -0 -0 0 0 0 0 0 0 0 0 0 0 0 0 0 0 0 0 0 0 0 -0 -0 -0 -0 -0 -0 -0 -0 -0 -0 0 0 -0 -0 -0 -0 -0 -0 -0 -0 -0 -0 0 0 -0 -1 -1 -0 -0 -0 -0 -0 -1 -0 -0 -0 -0 -1 -1 nan
nan nan nan nan nan nan nan nan nan nan nan nan nan nan nan nan nan nan nan nan nan nan nan nan nan nan nan nan nan nan nan nan nan nan nan nan nan nan nan nan nan nan nan nan nan nan nan nan nan nan nan nan nan nan nan nan nan nan nan nan nan nan nan nan nan nan nan nan nan
Wind_Speed
22 22 22 22 22 22 22 22 21 21 22 23 24 25 24 23 22 22 22 23 23 25 26 26 27 27 28 29 29 29 29 29 29 29 30 30 29 28 26 24 23 24 24 25 24 24 25 27 28 29 29 30 30 29 28 27 25 24 23 24 25 26 26 25 25 24 24 24 24
23 23 23 23 22 23 23 23 22 23 23 24 24 24 23 22 22 22 23 23 24 26 26 27 27 27 28 29 30 30 29 29 30 30 30 30 29 28 27 25 24 24 25 25 25 24 25 26 28 29 29 29 29 29 28 26 25 24 24 24 26 26 26 25 25 24 25 25 26
24 24 24 23 23 23 23 23 23 24 24 24 23 22 21 21 21 22 23 24 26 26 26 26 27 28 29 30 30 30 30 30 30 30 30 30 29 28 27 26 25 24 25 25 25 25 25 26 27 28 29 29 28 28 27 26 25 24 25 25 26 26 25 24 24 24 25 26 26
25 24 24 24 24 23 24 24 24 24 24 24 23 22 21 21 22 23 24 26 26 26 26 26 27 28 29 30 30 30 30 30 29 29 29 29 29 28 28 26 25 25 25 25 25 26 26 26 27 28 28 28 27 27 26 26 25 25 26 26 25 25 24 24 23 24 25 25 25
25 25 24 24 24 24 24 24 24 24 24 23 23 22 22 22 23 24 26 26 27 26 26 26 27 28 29 30 31 31 30 30 29 29 28 29 29 28 28 27 26 25 25 25 26 26 26 26 27 27 27 27 26 26 25 25 26 27 27 26 25 24 24 24 23 23 23 24 25
26 25 25 25 24 24 24 24 24 23 23 23 23 23 23 23 24 25 26 27 27 26 26 26 27 28 29 31 31 31 31 30 29 28 28 28 28 28 28 27 26 26 26 26 26 26 26 26 26 26 26 26 25 25 25 25 26 27 27 26 24 23 24 25 24 23 22 23 24
26 25 25 25 25 24 24 24 24 24 24 24 24 24 24 24 25 26 26 26 26 26 26 27 28 29 30 31 31 31 31 30 29 28 28 28 28 28 27 27 27 26 26 26 26 26 25 25 25 25 25 25 26 26 25 25 25 26 25 24 23 23 24 26 25 24 23 23 24
26 25 25 25 25 25 25 24 24 24 25 25 24 25 25 25 25 26 26 26 26 26 27 27 29 30 30 31 31 31 30 30 29 28 28 28 28 27 27 27 27 27 26 26 26 25 25 25 24 25 25 26 27 27 26 25 24 24 23 23 23 23 25 26 26 24 23 23 23
26 26 25 25 25 25 25 25 25 25 25 25 25 25 25 25 26 26 26 26 26 26 27 28 29 30 30 30 30 30 30 30 29 29 28 28 27 27 27 27 27 27 27 26 26 25 25 24 24 25 26 27 28 27 26 24 23 22 22 22 23 24 25 26 26 25 24 23 23
26 26 26 25 25 25 25 25 25 25 25 25 25 26 26 26 26 26 25 26 26 26 27 28 29 29 30 30 30 30 30 29 29 29 28 28 27 27 27 28 28 27 27 26 26 26 25 25 25 25 26 27 28 27 25 22 21 21 21 22 23 24 25 25 25 24 23 22 22
26 26 26 25 26 26 26 26 25 25 25 25 26 26 26 26 26 26 25 25 26 26 27 28 28 29 29 30 29 29 29 29 28 28 28 28 27 27 27 27 27 27 27 27 27 26 26 26 26 26 27 28 27 26 24 21 20 20 21 22 23 24 25 25 24 23 23 22 22
26 26 26 26 26 26 26 26 26 26 25 25 26 26 27 27 26 26 26 26 26 27 27 28 28 28 29 29 29 29 28 28 28 28 28 27 27 28 28 28 27 27 27 27 27 27 27 27 27 27 27 28 28 26 23 21 19 20 21 23 23 24 25 25 23 22 22 21 21
26 26 26 26 26 26 26 26 26 26 26 26 26 27 27 27 27 27 26 26 27 27 28 28 27 27 28 28 28 28 28 27 27 27 27 27 27 28 28 28 27 27 27 27 27 27 27 27 26 26 27 29 29 27 23 20 19 19 21 23 24 24 24 24 22 21 20 20 20
26 26 26 26 26 26 26 27 26 26 26 26 27 27 27 27 27 27 27 27 27 27 28 28 27 27 27 27 28 28 27 27 27 27 27 27 27 28 28 28 27 27 27 27 27 26 26 26 25 25 26 30 31 27 22 18 18 19 21 23 24 24 23 22 21 20 19 19 19
26 26 26 27 27 27 27 27 27 27 26 27 27 27 28 28 28 28 28 27 28 28 27 27 27 27 26 27 27 27 27 26 26 26 27 27 27 27 28 28 27 27 26 26 26 26 25 25 23 23 26 30 32 29 22 18 17 18 20 21 22 22 21 20 19 18 17 18 18
26 27 27 27 27 27 27 27 27 27 27 27 27 28 28 28 28 28 28 28 28 28 27 27 27 26 26 26 26 26 26 26 26 26 27 27 27 27 27 27 27 27 26 26 26 26 24 23 23 24 27 31 34 30 24 19 18 18 19 20 20 20 18 17 16 16 16 16 17
27 27 27 27 27 28 28 28 28 28 27 27 28 28 28 28 28 28 28 27 28 28 27 27 26 26 26 26 26 26 26 26 26 26 26 26 26 27 27 27 27 27 26 27 27 26 24 23 24 26 31 35 37 33 25 20 18 17 18 18 17 16 15 14 14 14 15 15 16
27 27 27 28 28 28 28 28 28 28 28 28 28 28 28 28 28 28 28 27 27 28 27 27 25 25 25 25 25 25 26 26 26 26 26 26 26 26 27 27 27 26 26 26 26 24 23 23 27 32 37 40 39 33 25 18 16 15 15 16 15 14 13 13 13 13 13 14 15
27 28 28 28 28 28 28 29 29 29 28 28 28 28 28 28 27 27 27 28 28 27 27 27 25 24 24 24 24 25 26 26 27 26 26 26 25 26 26 27 26 26 26 26 24 22 22 25 32 38 42 42 38 30 22 15 13 12 13 13 13 13 12 12 12 12 12 13 15
27 28 28 28 28 28 29 29 29 29 29 28 28 28 28 27 27 27 27 28 28 28 27 27 25 24 23 23 23 24 25 26 27 27 26 26 26 26 27 27 26 26 26 25 22 21 23 30 39 43 42 37 31 23 16 11 10 10 11 12 13 13 13 13 12 12 12 14 15
27 28 28 28 28 29 29 29 29 29 29 29 28 28 28 27 27 27 27 28 28 28 28 27 25 24 23 23 23 25 26 26 27 27 27 26 26 26 27 27 27 27 26 24 21 21 27 37 44 43 36 27 20 14 9 7 8 9 10 12 13 14 14 13 12 12 13 15 16
27 27 28 28 28 28 29 29 29 29 29 29 28 28 28 28 27 27 27 27 28 28 28 28 26 24 23 22 23 24 26 26 26 26 26 26 26 26 26 27 27 28 27 25 21 23 32 43 45 37 27 18 12 8 6 7 9 10 11 13 14 15 15 14 13 13 14 16 17
27 27 28 28 28 28 29 29 29 29 29 29 29 29 29 29 28 28 28 28 28 28 28 28 27 25 23 22 23 24 25 26 26 26 25 25 26 26 26 27 28 29 28 26 23 26 35 45 42 31 21 15 11 9 9 10 11 11 12 14 16 17 17 16 13 13 14 17 17
27 28 28 28 28 28 29 29 29 30 30 30 30 30 30 30 30 29 29 29 29 29 29 29 28 27 25 23 23 24 24 25 26 26 25 25 25 26 27 28 28 29 28 26 24 28 37 43 40 29 19 16 13 12 11 11 11 11 12 14 16 18 18 17 14 13 14 17 19
27 28 28 29 29 29 29 29 30 30 30 30 30 30 30 30 30 30 30 30 30 30 30 30 29 28 26 25 24 23 24 24 25 25 25 25 26 26 27 28 28 28 28 26 26 30 37 41 40 30 20 17 14 12 11 11 11 12 12 13 16 18 19 18 15 13 14 17 19
28 28 29 29 29 30 30 30 30 31 31 31 31 31 31 31 31 31 30 31 31 31 31 31 30 29 27 26 25 24 23 23 24 24 25 25 26 27 27 28 28 28 27 27 29 32 37 41 41 33 23 17 15 13 12 12 12 13 13 13 15 17 19 18 15 13 14 16 19
28 28 29 30 30 31 31 31 32 32 32 32 32 31 31 31 31 30 30 30 31 31 31 31 30 29 28 27 26 25 24 24 24 24 24 24 25 26 27 27 27 27 27 28 30 33 37 40 42 36 26 19 16 14 13 13 13 13 13 13 14 17 18 18 14 13 13 15 19
28 29 30 30 31 32 32 33 33 33 33 33 32 32 31 31 30 30 29 29 30 30 30 30 29 29 29 28 27 26 25 24 24 24 23 23 24 25 26 26 27 27 27 28 30 33 36 39 41 38 31 23 17 15 14 14 14 14 13 13 14 16 17 17 13 12 13 15 18
28 29 30 31 32 33 33 34 34 34 34 33 33 32 31 31 30 29 29 28 28 28 28 28 29 29 29 29 28 27 26 25 24 23 23 23 24 24 25 26 26 27 27 28 30 33 35 38 40 39 34 27 20 16 14 14 14 14 13 14 15 16 17 15 12 11 12 14 17
30 31 32 33 34 34 34 34 34 34 33 33 33 32 31 31 30 29 28 28 27 27 27 27 27 28 29 29 28 27 26 25 24 23 23 24 24 25 25 25 25 26 27 28 30 32 34 36 38 38 35 30 23 18 15 14 14 14 14 14 15 16 16 16 12 11 13 15 16
33 33 34 34 35 35 35 34 33 33 33 33 32 32 31 30 29 28 28 27 27 27 26 26 27 27 28 28 27 26 26 25 25 24 23 24 24 25 25 25 25 25 26 28 30 32 33 34 36 36 34 30 25 21 17 15 14 14 14 15 15 15 16 18 15 14 14 15 16
34 34 34 34 35 34 34 33 33 33 32 32 32 31 31 30 29 28 28 28 27 27 26 26 26 26 27 27 27 26 26 25 25 24 23 23 24 25 25 25 24 24 25 27 29 31 31 32 35 35 33 30 27 23 19 15 15 15 14 14 14 14 17 21 20 17 15 15 16
34 34 34 34 34 34 34 33 32 32 32 32 31 31 30 30 29 29 28 28 27 27 26 25 25 25 26 26 26 26 26 26 25 24 23 23 23 24 25 25 24 23 24 26 28 29 30 31 33 34 32 30 28 25 21 15 15 15 15 14 13 15 18 22 21 17 14 15 16
33 33 33 33 33 33 33 32 32 31 31 31 31 30 30 30 29 29 28 28 27 27 26 25 24 24 24 25 25 26 26 25 25 24 23 23 23 23 23 24 23 22 22 24 26 28 29 30 32 33 31 29 29 27 23 16 15 15 15 14 13 15 18 21 20 17 15 15 15
32 32 32 33 33 33 32 32 31 30 30 30 30 29 29 29 28 28 28 28 28 27 26 25 25 24 24 24 25 25 25 25 24 23 23 22 22 22 23 23 22 21 20 21 24 26 27 28 30 31 30 28 29 28 24 18 16 15 15 14 14 15 17 19 19 18 17 16 15
31 31 32 32 32 32 31 31 30 30 29 29 29 28 28 28 27 27 27 28 28 28 28 27 26 25 25 25 25 25 24 24 24 23 22 22 22 22 22 22 21 19 19 20 22 24 25 27 29 30 30 28 28 27 25 21 17 16 15 14 15 15 16 17 19 20 21 20 18
31 30 31 31 31 31 30 30 29 29 28 28 28 27 27 28 28 28 27 28 28 29 29 29 28 27 26 25 25 24 24 23 23 22 22 22 21 21 21 21 20 19 18 19 21 23 24 25 27 29 29 28 27 26 24 22 19 17 15 15 15 15 14 14 17 21 23 23 21
30 29 29 29 29 29 29 29 28 27 27 27 27 27 27 27 27 28 28 28 28 29 29 29 29 28 26 25 24 24 23 23 22 22 21 21 21 21 20 20 20 19 19 20 20 21 22 23 25 27 28 27 26 24 22 21 20 17 15 15 15 15 13 13 15 19 22 24 23
28 28 28 28 28 27 27 27 26 26 26 26 26 27 27 27 27 27 28 28 27 28 28 29 28 27 26 25 24 24 23 23 22 21 21 21 20 20 19 19 19 19 19 19 19 20 20 22 23 25 26 26 26 23 20 20 19 17 16 15 16 15 13 13 14 16 20 24 24
27 27 26 26 26 26 25 25 25 25 25 25 26 27 27 27 27 27 27 27 27 27 27 27 27 26 25 24 24 24 23 23 22 21 20 20 20 19 18 17 18 18 19 19 18 18 19 21 22 24 25 24 25 22 19 19 19 18 17 17 17 16 15 15 16 16 18 22 24
26 25 25 24 24 24 24 24 24 25 25 25 26 27 27 26 27 27 26 26 26 26 26 26 26 25 24 23 23 24 24 24 23 22 20 19 19 18 17 16 17 18 18 18 17 17 18 20 21 23 23 24 24 21 19 20 19 19 18 19 18 17 17 18 19 19 19 22 23
Wind_Direction
341 339 337 336 335 333 332 330 329 327 325 324 324 325 326 325 324 322 321 320 319 319 318 319 319 319 319 320 321 323 323 322 322 321 321 321 322 323 322 321 320 318 318 319 322 324 325 323 319 316 315 316 318 320 321 322 324 324 321 316 313 313 315 319 320 320 319 319 319
341 340 339 339 337 335 333 332 330 328 327 326 327 328 328 326 324 322 320 319 319 319 319 320 319 319 319 321 322 323 323 322 321 321 320 320 321 321 321 320 318 317 317 318 320 322 322 319 317 316 316 318 319 321 322 323 325 325 321 316 313 313 315 318 320 320 319 317 318
343 342 342 341 339 337 335 333 332 331 331 331 332 333 331 328 325 323 321 321 321 322 323 322 321 321 322 323 323 323 323 322 321 320 319 319 319 320 321 320 319 318 317 317 318 318 318 317 317 317 318 320 321 322 323 324 326 324 320 315 313 313 315 318 320 319 318 316 315
344 344 343 342 341 339 337 335 335 335 336 336 337 337 334 331 328 326 325 325 326 326 326 325 324 324 324 324 324 324 324 323 321 320 319 318 319 320 321 322 322 321 319 318 317 317 317 318 319 320 321 322 323 323 323 324 324 321 317 314 313 314 316 318 320 319 317 314 313
345 345 344 343 342 340 339 338 338 339 340 341 341 340 337 334 331 330 329 329 329 328 328 327 326 325 325 325 325 325 325 324 322 321 319 319 319 320 322 324 325 324 323 321 320 320 321 322 323 323 323 324 323 322 322 322 320 317 315 312 312 314 317 319 319 318 316 314 313
345 345 345 344 343 342 342 341 342 343 344 345 344 341 339 336 334 331 330 330 330 330 330 329 327 327 326 326 327 326 326 325 324 322 321 321 320 321 323 326 327 327 327 326 325 324 325 326 326 325 325 324 323 322 320 319 316 313 311 310 312 315 318 318 318 318 316 315 313
345 344 344 344 344 344 343 344 345 347 348 347 345 343 340 337 335 333 332 332 333 333 332 331 329 328 328 328 328 327 327 326 325 324 323 322 322 323 325 327 329 329 330 329 329 329 328 328 327 327 327 326 323 321 319 316 313 310 309 310 313 317 318 317 316 316 316 315 313
345 344 344 345 345 344 345 346 348 349 349 349 346 343 341 338 336 335 334 335 335 335 334 332 330 330 329 329 328 328 328 328 327 326 325 325 324 325 327 329 330 331 331 331 331 331 329 328 328 328 328 326 323 320 317 315 312 310 311 313 317 318 316 314 314 315 316 315 314
344 345 345 346 346 346 346 348 350 351 350 349 347 345 342 339 338 337 337 336 336 336 334 332 331 330 330 330 329 329 329 329 329 328 327 326 326 327 329 330 330 331 332 333 333 331 329 328 328 328 327 325 324 321 318 315 312 312 314 318 320 318 315 312 312 314 316 316 315
345 345 346 346 347 347 348 350 351 352 352 350 348 346 344 342 341 340 339 338 338 337 335 333 332 331 331 331 331 331 331 330 330 329 328 328 329 329 330 329 329 330 332 333 333 331 329 328 328 327 326 326 325 323 320 316 313 314 318 322 323 318 313 311 312 314 316 317 317
345 346 347 347 348 349 350 350 351 353 352 350 348 346 345 345 345 344 343 341 339 337 335 334 333 332 331 332 332 332 332 332 331 330 330 330 330 330 329 329 329 330 332 333 331 330 328 328 326 325 325 327 328 327 322 317 315 317 322 325 322 316 312 310 312 314 316 317 318
346 347 348 349 349 350 350 351 351 352 352 350 348 347 347 347 348 347 345 343 340 337 336 336 334 333 333 333 334 334 333 333 332 331 331 331 331 331 330 329 330 331 332 331 329 328 327 326 324 324 326 330 331 330 325 318 317 321 324 324 319 314 311 311 314 316 317 318 318
347 348 349 350 350 351 351 351 351 351 350 349 348 347 348 348 350 349 346 343 340 339 337 336 335 334 335 336 336 336 335 334 333 333 333 333 332 332 331 331 332 332 331 329 327 326 325 323 322 323 327 332 334 332 326 319 319 322 323 320 316 313 312 313 315 316 317 318 318
347 349 350 350 351 351 351 351 351 350 349 348 348 348 348 349 350 350 347 344 341 339 337 337 337 337 338 339 339 338 337 336 336 335 335 334 334 333 334 334 335 334 331 328 325 323 321 320 319 323 329 335 336 333 326 318 318 321 321 317 314 313 314 315 316 317 318 318 318
348 349 350 351 351 352 352 351 350 349 348 347 348 348 349 349 350 350 347 344 341 339 338 337 337 339 340 341 341 340 340 339 338 337 336 335 334 335 336 337 337 335 332 327 323 320 317 316 317 322 329 334 336 334 328 319 318 320 319 315 313 313 315 316 317 318 319 319 319
348 349 350 351 352 352 352 351 349 348 347 347 347 348 349 349 350 350 347 343 340 339 339 338 338 339 341 342 343 343 343 342 340 339 337 335 335 336 338 339 338 336 332 328 323 319 315 315 316 319 324 329 333 333 329 321 320 319 317 313 314 315 315 316 318 320 321 321 321
348 349 349 351 351 352 351 350 349 348 348 347 347 348 348 349 350 349 347 342 340 339 339 339 339 340 341 342 344 346 345 344 342 340 337 336 336 338 339 339 339 337 334 330 326 320 316 316 318 319 321 323 328 330 329 324 322 318 315 315 317 317 317 319 321 324 325 326 327
348 348 349 350 351 351 351 350 349 349 348 348 347 347 348 349 349 348 346 344 342 341 340 340 340 340 340 342 345 347 348 346 343 341 339 339 339 340 340 340 339 338 336 334 329 323 319 319 322 323 323 324 327 328 328 325 320 315 316 321 323 322 322 326 329 331 332 333 334
348 348 349 350 350 350 350 350 349 349 348 348 347 347 347 348 348 346 345 344 344 343 342 341 340 340 340 342 345 348 349 348 345 343 342 343 343 342 341 341 341 341 341 339 333 326 321 323 326 328 329 329 329 329 327 322 313 313 321 328 329 331 333 337 338 338 338 340 342
348 348 349 349 349 349 349 349 349 348 348 348 347 347 347 347 347 345 344 344 345 345 344 342 341 340 339 341 344 347 349 349 347 346 345 346 345 344 343 342 343 345 346 344 338 330 326 328 332 335 336 335 333 331 325 314 308 316 326 331 335 339 343 345 343 340 340 344 349
347 347 348 348 348 348 348 348 348 348 348 348 347 347 346 346 346 345 345 345 346 345 344 344 342 340 340 341 344 346 347 347 347 346 346 346 345 344 343 344 345 348 350 349 342 335 333 337 339 341 343 342 340 334 323 311 316 324 329 330 335 342 347 350 346 342 343 350 356
346 346 346 346 347 347 347 347 346 346 347 347 347 346 346 345 345 345 345 346 346 346 345 344 343 342 341 341 343 343 344 344 345 346 347 346 345 344 345 346 347 349 351 351 347 341 341 344 345 347 351 354 355 350 338 332 333 332 329 329 333 340 347 351 348 346 349 355 359
345 344 344 344 344 344 344 344 344 344 345 345 346 346 345 345 345 345 345 346 346 346 346 345 345 344 343 343 342 341 340 340 342 345 347 347 346 346 346 346 346 346 348 351 350 347 346 347 349 352 359 5 6 1 352 347 342 336 330 329 333 339 346 350 349 350 353 356 355
342 342 342 342 342 342 342 342 342 342 343 343 344 344 344 344 343 344 344 344 345 345 346 346 346 346 346 344 340 338 337 338 340 343 345 347 346 346 346 346 345 344 346 352 354 350 347 348 353 357 0 1 0 356 351 346 341 335 332 332 335 339 344 348 350 354 358 358 353
339 339 339 339 339 339 339 339 339 339 340 341 341 341 341 341 341 341 341 341 343 344 346 346 347 347 346 343 339 337 337 338 339 341 342 345 345 346 346 345 343 343 346 352 355 349 346 350 357 1 0 356 353 351 347 344 341 340 337 337 337 339 342 347 352 359 4 2 357
336 336 336 335 335 335 335 336 336 336 337 338 338 338 338 338 338 338 338 338 340 342 343 344 345 345 343 341 339 338 338 338 339 339 340 342 343 344 344 343 342 343 347 352 353 348 346 351 1 6 4 356 352 351 352 349 348 346 343 341 338 338 341 345 353 4 10 7 1
333 333 333 333 333 333 333 334 334 334 335 335 336 336 335 335 335 335 334 335 336 338 339 341 342 342 341 340 340 339 339 338 337 337 338 339 340 341 341 341 342 344 347 350 349 347 347 353 1 7 8 2 357 357 357 355 352 350 347 344 340 338 340 345 356 9 14 10 5
332 332 332 332 332 332 333 333 334 334 334 334 334 334 333 333 332 332 332 331 332 333 334 335 337 338 339 340 340 340 340 338 336 335 335 336 338 339 340 341 342 345 347 347 347 347 349 353 360 6 9 8 4 1 359 357 355 352 349 346 342 339 341 348 1 14 18 13 9
334 334 334 334 334 334 335 335 335 335 334 333 333 332 331 331 331 330 330 329 329 329 329 330 332 334 336 338 340 340 339 337 335 334 334 334 335 337 339 341 342 345 347 347 345 346 350 354 358 3 7 8 7 3 0 358 357 355 351 347 343 342 345 354 7 19 21 17 12
338 338 338 338 338 338 338 337 336 335 334 332 332 331 331 331 331 330 328 327 326 325 325 326 327 329 332 336 338 338 337 336 335 334 334 334 334 335 336 339 342 345 347 346 345 346 350 354 358 1 4 6 7 6 2 359 358 357 353 348 345 347 354 5 17 25 25 22 17
341 340 340 339 339 339 338 336 335 334 333 332 332 331 331 331 330 328 327 325 324 323 323 323 324 326 329 333 335 336 335 335 335 335 334 334 333 333 334 336 339 343 346 346 345 346 350 354 357 360 2 4 7 8 6 2 0 358 355 351 351 356 5 15 26 34 34 29 23
341 340 339 338 337 337 336 335 334 334 333 332 332 331 331 330 329 327 326 325 324 323 322 322 322 324 327 331 333 334 334 335 336 335 333 333 332 332 333 334 336 340 343 344 344 346 349 353 356 358 0 3 7 9 8 5 1 359 357 357 0 6 14 21 32 41 44 35 28
339 337 336 335 335 335 335 334 334 333 333 332 331 331 330 330 329 328 327 326 325 324 323 322 322 323 325 327 329 331 333 335 335 334 333 332 332 332 332 333 335 338 341 342 343 345 348 351 355 357 359 3 8 10 10 8 3 0 2 8 11 13 17 24 36 46 48 40 35
335 334 334 333 334 334 334 333 333 332 331 331 330 330 330 330 330 328 328 328 328 326 325 324 324 324 324 325 326 329 332 333 334 333 332 331 332 332 332 334 335 337 339 341 342 344 347 350 353 355 358 3 9 12 12 11 6 4 9 18 20 17 18 25 35 46 51 47 43
333 333 333 333 333 333 333 332 332 331 331 331 331 331 332 332 330 329 329 330 330 329 328 328 327 326 325 325 326 329 331 333 331 330 331 331 332 332 333 334 336 338 341 342 343 344 345 348 351 354 358 2 9 12 13 12 8 7 12 23 26 23 20 21 28 39 49 54 51
334 334 334 334 333 333 332 332 332 332 332 332 333 334 334 334 333 332 332 333 333 332 331 331 330 329 327 326 327 329 332 332 329 329 330 331 331 332 334 334 336 340 345 346 345 344 345 347 350 354 357 1 6 9 11 11 9 6 9 18 25 28 26 24 26 33 44 53 55
335 335 335 334 334 333 333 333 333 334 335 336 337 337 337 336 335 335 334 334 333 333 332 332 331 330 328 328 328 330 332 332 329 328 330 330 331 333 334 335 337 342 347 349 347 345 346 347 350 354 357 358 0 4 8 9 8 6 5 9 20 28 33 33 31 34 40 48 51
337 337 336 335 334 334 334 335 336 337 338 340 340 340 339 338 337 336 336 335 333 332 332 332 331 330 330 330 330 332 333 333 330 329 330 330 332 334 335 336 338 343 347 348 348 348 348 349 352 354 357 357 356 359 4 7 7 7 6 8 16 25 33 36 34 35 40 46 47
339 339 337 336 335 335 336 338 339 340 341 342 342 342 341 340 338 337 337 336 334 333 332 332 332 332 333 333 334 334 334 335 333 332 332 332 333 335 338 338 339 342 346 348 349 351 352 353 354 356 357 357 356 358 4 9 9 10 11 12 14 19 24 27 27 34 43 50 50
341 340 339 338 338 338 339 340 341 342 343 343 342 342 341 340 338 337 337 337 336 334 333 333 335 336 337 338 337 337 337 337 336 336 335 335 335 337 340 340 341 343 346 349 352 355 357 358 358 358 359 358 357 1 9 14 15 16 18 18 16 16 17 20 22 33 47 54 54
343 342 341 341 342 342 342 341 342 343 343 343 342 341 340 339 339 338 338 337 337 336 336 337 338 340 342 342 342 341 342 342 341 340 339 339 339 340 342 343 344 346 349 351 354 359 1 2 2 2 1 359 0 7 16 19 19 21 24 24 22 22 23 27 30 37 48 54 54
Height
1533 1531 1529 1528 1526 1525 1523 1522 1520 1519 1517 1515 1513 1511 1510 1509 1507 1506 1504 1503 1501 1499 1497 1495 1494 1492 1490 1489 1487 1485 1484 1482 1481 1480 1479 1477 1476 1474 1473 1472 1471 1470 1469 1467 1466 1465 1464 1463 1462 1460 1459 1457 1455 1454 1453 1452 1450 1449 1449 1448 1447 1446 1444 1443 1441 1440 1439 1439 1438
1532 1530 1529 1527 1526 1524 1522 1520 1519 1518 1516 1514 1512 1511 1509 1508 1507 1505 1504 1502 1500 1498 1496 1494 1493 1491 1489 1487 1486 1484 1483 1481 1480 1478 1477 1475 1474 1473 1472 1471 1469 1469 1467 1466 1465 1464 1463 1462 1460 1459 1457 1455 1454 1453 1451 1450 1449 1448 1447 1446 1445 1444 1443 1441 1440 1439 1438 1437 1436
1531 1529 1528 1526 1524 1523 1521 1519 1518 1516 1514 1513 1511 1510 1509 1507 1506 1504 1502 1501 1499 1497 1495 1493 1491 1490 1488 1486 1485 1483 1482 1480 1479 1477 1475 1474 1473 1471 1470 1469 1468 1467 1466 1465 1464 1462 1461 1460 1459 1457 1456 1454 1453 1451 1450 1449 1448 1447 1446 1445 1444 1442 1441 1440 1438 1437 1436 1436 1435
1530 1529 1527 1525 1524 1522 1520 1519 1517 1515 1513 1512 1510 1509 1508 1506 1505 1503 1501 1499 1498 1496 1494 1493 1491 1489 1487 1485 1484 1482 1480 1479 1477 1476 1474 1472 1471 1470 1469 1468 1466 1465 1464 1463 1462 1461 1460 1459 1457 1456 1454 1453 1451 1450 1449 1448 1447 1446 1445 1444 1442 1441 1439 1438 1437 1436 1435 1434 1433
1529 1528 1526 1524 1523 1521 1520 1518 1516 1514 1513 1511 1509 1508 1507 1505 1504 1502 1500 1499 1497 1495 1494 1492 1490 1488 1486 1485 1483 1481 1479 1478 1476 1474 1473 1471 1470 1468 1467 1466 1465 1464 1463 1462 1461 1459 1458 1457 1456 1454 1453 1451 1450 1449 1448 1447 1446 1445 1444 1442 1441 1439 1438 1437 1435 1434 1434 1433 1431
1529 1527 1525 1524 1522 1520 1519 1517 1515 1514 1512 1510 1509 1507 1506 1505 1503 1502 1500 1498 1496 1494 1493 1491 1489 1488 1486 1484 1482 1480 1478 1476 1474 1473 1471 1470 1468 1467 1466 1465 1464 1463 1462 1461 1459 1458 1457 1456 1454 1453 1452 1450 1449 1448 1447 1447 1445 1444 1442 1440 1439 1438 1437 1435 1434 1433 1432 1431 1430
1528 1526 1525 1523 1521 1520 1518 1516 1515 1513 1511 1510 1508 1507 1505 1504 1503 1501 1499 1497 1495 1494 1492 1490 1489 1487 1485 1483 1481 1479 1477 1475 1473 1472 1470 1469 1467 1466 1464 1464 1463 1461 1460 1459 1458 1457 1456 1455 1453 1452 1450 1449 1448 1447 1446 1445 1444 1442 1441 1439 1438 1437 1435 1434 1433 1432 1430 1429 1428
1527 1526 1524 1522 1521 1519 1517 1516 1514 1512 1510 1509 1507 1506 1504 1503 1502 1500 1498 1496 1494 1493 1491 1489 1488 1486 1484 1482 1480 1478 1476 1474 1472 1470 1469 1468 1466 1465 1464 1462 1461 1460 1459 1458 1457 1456 1454 1453 1452 1451 1449 1448 1447 1446 1444 1443 1442 1441 1439 1438 1436 1435 1434 1433 1432 1430 1429 1428 1426
1527 1525 1523 1522 1520 1518 1517 1515 1513 1512 1510 1508 1507 1505 1504 1503 1501 1499 1497 1495 1494 1492 1490 1489 1487 1485 1483 1481 1479 1477 1475 1473 1471 1469 1468 1466 1465 1464 1462 1461 1460 1459 1458 1457 1456 1455 1454 1452 1451 1450 1449 1448 1446 1444 1443 1442 1440 1439 1438 1436 1435 1434 1433 1432 1431 1429 1428 1426 1425
1526 1524 1523 1521 1519 1518 1516 1514 1512 1511 1509 1508 1506 1505 1503 1502 1500 1498 1496 1494 1493 1491 1490 1488 1486 1484 1482 1480 1478 1476 1474 1472 1470 1468 1467 1465 1464 1463 1462 1460 1459 1458 1457 1456 1455 1454 1452 1451 1450 1449 1448 1447 1445 1443 1441 1440 1439 1438 1436 1435 1434 1433 1432 1431 1429 1428 1426 1425 1424
1525 1524 1522 1520 1519 1517 1515 1513 1512 1510 1509 1507 1506 1504 1502 1501 1499 1497 1495 1494 1492 1490 1489 1487 1485 1484 1481 1479 1477 1475 1473 1471 1469 1468 1466 1464 1463 1462 1461 1460 1459 1457 1456 1455 1454 1452 1451 1450 1449 1448 1446 1445 1444 1442 1440 1439 1438 1437 1435 1434 1433 1432 1431 1429 1428 1427 1425 1424 1422
1525 1523 1521 1520 1518 1516 1514 1513 1511 1509 1508 1506 1505 1503 1502 1500 1498 1496 1494 1493 1491 1489 1488 1486 1485 1483 1480 1478 1476 1474 1472 1470 1469 1467 1465 1464 1463 1461 1460 1459 1458 1456 1455 1454 1453 1451 1450 1449 1448 1446 1445 1444 1442 1440 1439 1438 1436 1435 1434 1433 1432 1431 1430 1428 1427 1425 1424 1423 1421
1524 1523 1521 1519 1517 1515 1514 1512 1510 1509 1507 1506 1504 1503 1501 1499 1497 1495 1494 1492 1490 1489 1487 1485 1484 1482 1480 1478 1475 1474 1472 1470 1468 1466 1465 1463 1462 1460 1459 1458 1456 1455 1454 1453 1452 1450 1449 1448 1446 1445 1444 1442 1441 1439 1438 1436 1435 1434 1433 1432 1431 1430 1429 1427 1425 1424 1423 1422 1420
1524 1522 1520 1519 1517 1515 1513 1511 1509 1508 1507 1505 1504 1502 1500 1498 1496 1494 1493 1491 1489 1488 1486 1484 1483 1481 1479 1477 1475 1473 1471 1469 1468 1466 1464 1463 1461 1460 1458 1457 1455 1454 1453 1452 1450 1449 1448 1446 1445 1444 1442 1441 1439 1438 1437 1435 1434 1433 1432 1432 1430 1429 1427 1426 1424 1423 1422 1421 1419
1523 1521 1519 1518 1516 1514 1513 1511 1509 1508 1506 1504 1503 1501 1499 1497 1495 1494 1492 1490 1489 1487 1486 1484 1482 1480 1478 1476 1474 1473 1470 1469 1467 1465 1464 1462 1461 1459 1458 1456 1454 1453 1452 1450 1449 1448 1446 1445 1444 1443 1441 1440 1438 1437 1435 1434 1433 1432 1431 1431 1429 1428 1426 1425 1424 1423 1421 1420 1418
1522 1521 1519 1517 1515 1514 1512 1510 1509 1507 1505 1504 1502 1500 1499 1497 1495 1493 1491 1490 1489 1487 1485 1483 1481 1479 1477 1475 1474 1472 1470 1468 1467 1465 1463 1462 1460 1459 1457 1455 1454 1452 1451 1449 1447 1446 1444 1444 1443 1441 1440 1438 1437 1435 1434 1433 1432 1431 1431 1430 1429 1427 1425 1424 1423 1422 1421 1419 1418
1522 1520 1519 1517 1515 1513 1512 1510 1508 1507 1505 1503 1501 1499 1498 1496 1494 1493 1491 1490 1488 1486 1484 1482 1480 1479 1477 1475 1473 1471 1469 1468 1466 1464 1463 1461 1459 1458 1456 1454 1453 1451 1450 1448 1446 1445 1444 1443 1441 1440 1438 1436 1435 1434 1433 1431 1430 1430 1430 1429 1428 1426 1425 1424 1423 1421 1420 1419 1417
1521 1519 1518 1516 1514 1513 1511 1509 1508 1506 1504 1502 1501 1499 1497 1495 1494 1492 1491 1489 1488 1486 1484 1481 1480 1478 1476 1474 1473 1471 1469 1467 1466 1464 1463 1461 1459 1457 1456 1454 1452 1451 1449 1447 1446 1444 1443 1442 1440 1438 1436 1434 1432 1431 1431 1430 1430 1430 1429 1428 1427 1425 1424 1423 1422 1421 1419 1418 1416
1520 1519 1517 1515 1514 1512 1510 1509 1507 1505 1504 1502 1500 1498 1497 1495 1494 1492 1490 1489 1487 1485 1483 1481 1479 1477 1476 1474 1472 1470 1469 1467 1465 1464 1462 1460 1459 1457 1455 1454 1452 1450 1448 1447 1445 1444 1443 1441 1439 1436 1433 1431 1429 1429 1429 1429 1429 1429 1428 1427 1426 1425 1424 1422 1421 1420 1419 1417 1416
1520 1518 1516 1515 1513 1511 1509 1508 1506 1504 1503 1501 1499 1498 1496 1494 1493 1491 1490 1488 1486 1484 1483 1480 1479 1477 1475 1473 1472 1470 1469 1467 1465 1464 1462 1460 1458 1457 1455 1453 1451 1449 1448 1446 1445 1444 1442 1440 1437 1434 1430 1428 1427 1427 1427 1428 1428 1428 1427 1426 1425 1424 1423 1422 1420 1419 1418 1417 1415
1519 1518 1516 1514 1513 1511 1509 1507 1506 1504 1502 1500 1499 1497 1496 1494 1493 1491 1489 1488 1486 1484 1482 1480 1478 1476 1474 1473 1471 1469 1468 1467 1465 1463 1461 1459 1458 1456 1454 1453 1451 1449 1447 1445 1444 1443 1441 1438 1434 1431 1429 1427 1426 1426 1426 1427 1427 1427 1426 1425 1424 1423 1422 1421 1420 1419 1417 1416 1414
1519 1517 1515 1514 1512 1510 1509 1507 1505 1504 1502 1500 1499 1497 1495 1494 1492 1490 1489 1487 1485 1483 1481 1479 1478 1476 1474 1472 1470 1469 1468 1466 1465 1463 1461 1459 1458 1456 1454 1453 1450 1449 1447 1445 1444 1442 1439 1436 1434 1431 1429 1427 1426 1426 1426 1426 1426 1426 1425 1424 1424 1423 1422 1421 1419 1418 1417 1415 1414
1518 1517 1515 1513 1512 1510 1508 1506 1505 1503 1501 1499 1498 1496 1494 1493 1491 1490 1488 1486 1484 1483 1481 1479 1477 1475 1474 1472 1470 1469 1467 1466 1464 1463 1461 1459 1457 1456 1454 1452 1450 1449 1447 1445 1443 1441 1439 1437 1436 1433 1430 1428 1427 1426 1426 1426 1426 1425 1425 1424 1423 1422 1421 1420 1419 1418 1416 1415 1413
1518 1516 1514 1513 1511 1509 1508 1506 1504 1502 1500 1499 1497 1495 1494 1492 1490 1489 1487 1486 1484 1482 1480 1478 1476 1474 1473 1471 1470 1469 1467 1465 1464 1462 1461 1459 1457 1455 1454 1452 1450 1449 1447 1445 1443 1442 1441 1441 1438 1434 1430 1429 1428 1427 1427 1426 1426 1425 1424 1424 1422 1421 1420 1419 1418 1417 1416 1414 1413
1517 1515 1514 1512 1510 1509 1507 1505 1503 1502 1500 1498 1497 1495 1493 1492 1490 1488 1486 1485 1483 1481 1479 1478 1476 1474 1473 1471 1470 1469 1467 1465 1464 1462 1460 1458 1457 1455 1454 1452 1450 1449 1447 1445 1443 1442 1442 1442 1438 1434 1430 1429 1428 1427 1427 1426 1426 1425 1424 1423 1422 1421 1420 1419 1418 1416 1415 1414 1412
1516 1514 1513 1511 1509 1508 1506 1504 1503 1501 1499 1497 1496 1494 1493 1491 1489 1488 1486 1484 1482 1481 1479 1477 1475 1474 1472 1471 1469 1468 1466 1465 1463 1462 1460 1458 1456 1455 1454 1452 1450 1449 1447 1445 1444 1442 1441 1441 1437 1433 1430 1429 1428 1427 1427 1426 1425 1425 1424 1423 1422 1421 1419 1418 1417 1416 1414 1413 1412
1515 1513 1512 1510 1508 1507 1505 1503 1501 1500 1498 1496 1495 1493 1492 1490 1489 1487 1485 1484 1482 1480 1479 1477 1475 1474 1472 1470 1469 1467 1465 1464 1463 1461 1460 1458 1456 1455 1453 1452 1450 1449 1447 1445 1444 1442 1441 1439 1437 1434 1431 1429 1428 1427 1427 1426 1425 1424 1424 1423 1422 1420 1419 1418 1416 1415 1414 1413 1412
1514 1512 1510 1509 1507 1505 1504 1502 1500 1499 1497 1495 1494 1492 1491 1489 1488 1486 1485 1483 1481 1480 1478 1476 1475 1473 1472 1470 1468 1466 1465 1464 1462 1461 1459 1458 1456 1455 1453 1452 1450 1448 1447 1445 1444 1442 1441 1439 1437 1434 1431 1429 1428 1427 1426 1426 1425 1424 1424 1423 1421 1420 1419 1417 1416 1415 1414 1413 1412
1513 1511 1509 1508 1506 1504 1503 1501 1499 1498 1496 1494 1493 1491 1490 1489 1487 1485 1484 1482 1481 1479 1478 1476 1474 1473 1471 1469 1468 1466 1464 1463 1462 1460 1459 1458 1456 1454 1453 1452 1450 1448 1447 1445 1444 1442 1441 1439 1436 1434 1431 1429 1428 1427 1426 1426 1425 1424 1424 1422 1421 1419 1418 1417 1416 1415 1414 1413 1412
1512 1510 1509 1507 1505 1504 1502 1500 1499 1497 1495 1494 1492 1490 1489 1487 1486 1484 1483 1481 1480 1479 1477 1476 1474 1472 1470 1469 1467 1465 1464 1463 1461 1460 1459 1457 1455 1454 1453 1451 1450 1448 1447 1445 1444 1442 1440 1438 1436 1434 1432 1430 1429 1427 1427 1426 1425 1424 1423 1422 1421 1419 1418 1417 1416 1415 1414 1413 1413
1511 1509 1508 1506 1504 1503 1501 1500 1498 1496 1495 1493 1491 1489 1488 1486 1485 1483 1482 1480 1479 1478 1476 1475 1473 1471 1470 1468 1467 1465 1464 1462 1461 1459 1458 1457 1455 1454 1452 1451 1449 1448 1447 1445 1444 1442 1440 1438 1436 1434 1432 1431 1429 1427 1427 1426 1425 1424 1423 1422 1420 1419 1418 1417 1415 1415 1414 1414 1413
1511 1509 1508 1506 1504 1502 1501 1499 1497 1496 1494 1492 1490 1489 1487 1485 1484 1482 1481 1479 1478 1476 1474 1473 1472 1470 1469 1467 1466 1464 1463 1461 1460 1459 1458 1456 1455 1454 1452 1450 1449 1448 1447 1446 1444 1442 1440 1439 1437 1435 1433 1431 1429 1428 1427 1426 1425 1424 1423 1421 1420 1419 1418 1416 1415 1415 1414 1414 1413
1510 1509 1507 1505 1504 1502 1500 1499 1497 1495 1493 1491 1490 1488 1486 1484 1483 1481 1480 1478 1476 1475 1473 1472 1470 1469 1468 1466 1465 1463 1462 1461 1459 1458 1457 1456 1455 1454 1452 1450 1449 1448 1447 1446 1444 1443 1441 1439 1437 1435 1434 1432 1429 1428 1427 1426 1425 1424 1423 1422 1421 1419 1418 1417 1416 1415 1415 1414 1413
1510 1509 1507 1505 1503 1501 1499 1498 1496 1494 1493 1491 1489 1488 1486 1484 1482 1480 1479 1477 1475 1474 1472 1471 1469 1468 1467 1466 1464 1463 1461 1460 1459 1458 1457 1456 1454 1453 1452 1450 1449 1448 1447 1446 1444 1443 1441 1439 1438 1436 1434 1432 1429 1428 1427 1426 1426 1424 1423 1422 1421 1420 1418 1417 1417 1416 1415 1414 1414
1510 1508 1506 1504 1503 1501 1499 1497 1495 1494 1492 1490 1489 1487 1485 1483 1481 1479 1478 1476 1474 1473 1471 1470 1469 1467 1466 1465 1464 1462 1460 1459 1458 1457 1456 1455 1454 1453 1452 1450 1449 1448 1447 1446 1444 1443 1442 1440 1438 1437 1435 1433 1430 1428 1427 1426 1426 1425 1424 1423 1421 1420 1419 1417 1417 1416 1416 1414 1414
1509 1508 1506 1504 1502 1500 1499 1497 1495 1493 1492 1490 1488 1486 1484 1483 1481 1479 1477 1476 1474 1472 1470 1469 1468 1466 1465 1464 1462 1461 1459 1458 1457 1457 1456 1455 1454 1453 1451 1450 1449 1447 1446 1445 1444 1444 1442 1440 1439 1437 1435 1433 1431 1429 1428 1427 1426 1425 1424 1423 1422 1421 1420 1418 1417 1417 1417 1415 1414
1509 1507 1505 1503 1502 1500 1498 1496 1495 1493 1491 1489 1488 1486 1484 1482 1480 1479 1477 1475 1474 1472 1470 1468 1467 1465 1464 1463 1461 1460 1459 1458 1457 1456 1455 1454 1454 1452 1451 1450 1449 1447 1446 1445 1444 1444 1442 1441 1439 1437 1435 1433 1431 1430 1429 1428 1427 1426 1425 1424 1422 1421 1420 1419 1418 1418 1418 1417 1414
1508 1507 1505 1503 1501 1499 1498 1496 1494 1493 1491 1489 1487 1485 1484 1482 1480 1479 1477 1475 1474 1472 1470 1468 1467 1465 1464 1462 1461 1459 1458 1457 1457 1456 1455 1454 1453 1452 1451 1450 1449 1447 1446 1445 1444 1444 1442 1441 1439 1438 1436 1434 1432 1430 1429 1428 1427 1426 1425 1424 1423 1422 1421 1420 1419 1419 1418 1417 1415
1508 1506 1504 1503 1501 1499 1498 1496 1494 1492 1490 1489 1487 1485 1484 1482 1480 1479 1477 1476 1474 1472 1470 1468 1466 1465 1463 1462 1460 1459 1458 1457 1456 1455 1455 1454 1453 1452 1451 1450 1449 1447 1446 1445 1444 1444 1443 1441 1440 1438 1436 1434 1432 1431 1430 1429 1428 1427 1425 1424 1423 1422 1421 1420 1419 1419 1419 1418 1416
1507 1505 1504 1502 1501 1499 1497 1495 1494 1492 1490 1489 1487 1485 1484 1482 1480 1479 1477 1476 1474 1472 1470 1469 1466 1465 1463 1462 1460 1459 1458 1456 1455 1455 1454 1454 1453 1452 1451 1450 1449 1448 1447 1446 1444 1444 1443 1441 1440 1439 1437 1435 1433 1432 1430 1429 1428 1427 1426 1425 1424 1423 1421 1420 1420 1420 1420 1419 1417
1507 1505 1504 1502 1500 1499 1497 1495 1494 1492 1490 1489 1487 1485 1484 1482 1481 1479 1477 1476 1474 1473 1470 1469 1467 1465 1463 1462 1460 1459 1457 1456 1455 1454 1454 1453 1452 1452 1451 1450 1449 1448 1447 1446 1444 1444 1443 1442 1441 1439 1438 1436 1434 1432 1430 1429 1428 1427 1426 1425 1424 1423 1422 1421 1420 1420 1420 1419 1418